Weather History for Flippin, AR

Change the Weather History Date:

Monday, November 26, 2012

  Actual Average Record
Temperature  
Mean Temperature 45 °F -  
Max Temperature 51 °F 54 °F 69 °F (1998)
Min Temperature 39 °F 34 °F 21 °F (2010)
Degree Days  
Heating Degree Days 20    
Moisture  
Dew Point 33 °F    
Average Humidity 63    
Maximum Humidity 71    
Minimum Humidity 53    
Precipitation  
Precipitation 0.02 in - - ()
Sea Level Pressure  
Sea Level Pressure 30.08 in    
Wind  
Wind Speed 3 mph (NNE)    
Max Wind Speed 17 mph    
Max Gust Speed 25 mph    
Visibility 10 miles    
Events      
Averages and records for this station are not official NWS values.
T = Trace of Precipitation, MM = Missing Value Source: NWS Daily Summary

Daily Weather History Graph

Daily Weather History Graph

Search for Another Location

Airport:

Trip Planner

Search our weather history database for the weather conditions in past years. The results will help you decide how hot, cold, wet, or windy it might be!

Date:

Astronomy

Nov. 26, 2012 Rise Set
Actual Time 6:58 AM CST 4:56 PM CST
Civil Twilight 6:30 AM CST 5:24 PM CST
Nautical Twilight 5:59 AM CST 5:56 PM CST
Astronomical Twilight 5:28 AM CST 6:27 PM CST
Moon 3:47 PM CST (11/26) 5:11 AM CST (11/26)
Length of Visible Light 10h 53m
Length of Day
9h 57m
Waxing Gibbous, 97% of the Moon is Illuminated
Nov 26
Waxing Gibbous
Nov 28
Full
Dec 6
Last Quarter
Dec 13
New
Dec 19
First Quarter

Hourly Weather History & Observations

Time (CST) Temp. Windchill Dew Point Humidity Pressure Visibility Wind Dir Wind Speed Gust Speed Precip Events Conditions
12:15 AM 42.8 °F - 30.2 °F 61% 29.97 in 10.0 mi Calm Calm - N/A   Clear
12:55 AM 44.6 °F - 30.2 °F 57% 29.97 in 10.0 mi Calm Calm - N/A   Clear
1:15 AM 42.8 °F - 30.2 °F 61% 29.96 in 10.0 mi Calm Calm - N/A   Clear
1:55 AM 39.2 °F - 30.2 °F 70% 29.96 in 10.0 mi Calm Calm - N/A   Clear
2:15 AM 39.2 °F - 30.2 °F 70% 29.96 in 10.0 mi Calm Calm - N/A   Clear
2:55 AM 39.2 °F - 30.2 °F 70% 29.97 in 10.0 mi Calm Calm - N/A   Clear
3:55 AM 39.2 °F - 30.2 °F 70% 29.96 in 10.0 mi Calm Calm - N/A   Mostly Cloudy
4:15 AM 39.2 °F - 30.2 °F 70% 29.96 in 10.0 mi Calm Calm - N/A   Mostly Cloudy
4:55 AM 42.8 °F - 33.8 °F 70% 29.96 in 10.0 mi Calm Calm - N/A   Overcast
5:15 AM 42.8 °F - 33.8 °F 70% 29.96 in 10.0 mi Calm Calm - N/A   Overcast
5:35 AM 42.8 °F - 33.8 °F 70% 29.97 in 10.0 mi Calm Calm - N/A   Overcast
5:56 AM 42.8 °F - 33.8 °F 70% 29.97 in 10.0 mi Calm Calm - N/A   Overcast
6:15 AM 44.6 °F - 35.6 °F 71% 29.98 in 10.0 mi Calm Calm - N/A   Overcast
6:35 AM 44.6 °F - 35.6 °F 71% 29.98 in 10.0 mi Calm Calm - N/A   Overcast
7:15 AM 44.6 °F - 33.8 °F 66% 29.99 in 10.0 mi Calm Calm - N/A   Overcast
7:35 AM 44.6 °F - 33.8 °F 66% 30.00 in 10.0 mi Calm Calm - N/A   Overcast
8:15 AM 46.4 °F 45.2 °F 33.8 °F 62% 30.01 in 10.0 mi NNE 3.5 mph - N/A   Overcast
8:35 AM 46.4 °F 44.3 °F 35.6 °F 66% 30.01 in 10.0 mi NE 4.6 mph - N/A   Overcast
8:55 AM 46.4 °F 43.5 °F 35.6 °F 66% 30.02 in 10.0 mi North 5.8 mph - N/A   Overcast
9:15 AM 46.4 °F 44.3 °F 35.6 °F 66% 30.03 in 10.0 mi NNE 4.6 mph - N/A   Overcast
9:35 AM 46.4 °F 43.5 °F 35.6 °F 66% 30.03 in 10.0 mi NNE 5.8 mph - N/A   Overcast
9:55 AM 46.4 °F 43.5 °F 35.6 °F 66% 30.03 in 10.0 mi NE 5.8 mph - N/A   Overcast
10:16 AM 48.2 °F - 35.6 °F 62% 30.04 in 10.0 mi NE 5.8 mph - N/A   Overcast
10:35 AM 48.2 °F - 35.6 °F 62% 30.05 in 10.0 mi NNE 4.6 mph - N/A   Overcast
10:55 AM 48.2 °F - 35.6 °F 62% 30.05 in 10.0 mi North 6.9 mph - N/A   Overcast
11:15 AM 48.2 °F - 35.6 °F 62% 30.04 in 10.0 mi NNE 6.9 mph - N/A   Overcast
11:36 AM 48.2 °F - 35.6 °F 62% 30.04 in 10.0 mi NNE 4.6 mph - N/A   Overcast
12:15 PM 48.2 °F - 35.6 °F 62% 30.03 in 10.0 mi NNE 3.5 mph - N/A   Overcast
12:35 PM 48.2 °F - 35.6 °F 62% 30.03 in 10.0 mi Calm Calm - N/A   Overcast
12:55 PM 48.2 °F - 35.6 °F 62% 30.03 in 10.0 mi North 4.6 mph - N/A   Overcast
1:15 PM 50.0 °F - 37.4 °F 62% 30.03 in 10.0 mi NNE 6.9 mph - N/A   Overcast
1:55 PM 50.0 °F - 35.6 °F 58% 30.04 in 10.0 mi NE 6.9 mph - N/A   Overcast
2:16 PM 50.0 °F - 35.6 °F 58% 30.04 in 10.0 mi NE 5.8 mph - N/A   Overcast
2:35 PM 51.8 °F - 35.6 °F 54% 30.05 in 10.0 mi North 8.1 mph - N/A   Overcast
2:55 PM 50.0 °F - 35.6 °F 58% 30.05 in 10.0 mi NNE 10.4 mph - N/A   Overcast
3:35 PM 48.2 °F - 33.8 °F 58% 30.08 in 10.0 mi NNE 11.5 mph - N/A   Overcast
3:55 PM 46.4 °F 40.7 °F 33.8 °F 62% 30.11 in 10.0 mi North 12.7 mph 16.1 mph N/A   Overcast
4:15 PM 46.4 °F 40.4 °F 33.8 °F 62% 30.11 in 10.0 mi NNE 13.8 mph - N/A   Overcast
4:55 PM 46.4 °F 40.7 °F 32.0 °F 57% 30.15 in 10.0 mi North 12.7 mph 16.1 mph N/A   Overcast
5:15 PM 46.4 °F 41.9 °F 32.0 °F 57% 30.16 in 10.0 mi North 9.2 mph - N/A   Overcast
5:55 PM 44.6 °F 38.1 °F 30.2 °F 57% 30.20 in 10.0 mi North 13.8 mph 25.3 mph N/A   Overcast
6:15 PM 42.8 °F 37.0 °F 32.0 °F 66% 30.22 in 8.0 mi NNE 10.4 mph 23.0 mph 0.01 in   Overcast
6:35 PM 42.8 °F 38.0 °F 32.0 °F 66% 30.23 in 10.0 mi NNE 8.1 mph - 0.02 in   Overcast
7:15 PM 42.8 °F 37.0 °F 32.0 °F 66% 30.25 in 10.0 mi NNE 10.4 mph - N/A   Overcast
7:35 PM 42.8 °F 34.8 °F 28.4 °F 57% 30.26 in 10.0 mi NNE 17.3 mph 25.3 mph N/A   Overcast
7:56 PM 41.0 °F 35.2 °F 26.6 °F 57% 30.27 in 10.0 mi NNE 9.2 mph - N/A   Overcast
8:15 PM 42.8 °F 36.6 °F 26.6 °F 53% 30.27 in 10.0 mi NNE 11.5 mph 18.4 mph N/A   Overcast
9:15 PM 39.2 °F 33.0 °F 28.4 °F 65% 30.31 in 10.0 mi North 9.2 mph - N/A   Overcast
9:35 PM 39.2 °F 34.2 °F 28.4 °F 65% 30.31 in 10.0 mi NNE 6.9 mph - N/A   Overcast
10:16 PM 39.2 °F 32.0 °F 28.4 °F 65% 30.31 in 10.0 mi NNE 11.5 mph - N/A   Overcast
11:16 PM 39.2 °F 35.0 °F 26.6 °F 61% 30.32 in 10.0 mi North 5.8 mph - N/A   Overcast
11:55 PM 39.2 °F 33.6 °F 28.4 °F 65% 30.32 in 10.0 mi North 8.1 mph - N/A   Overcast